FENGYUN 1C DEB, 46986

Orbit data source: Space-Track

FENGYUN 1C DEB, 46986 is space debris in SSO originally from a launch on Mon, 10 May 1999 UTC launched from the Taiyaun Space Center, China (TSC). Fengyun 1C debris stems from the Chinese weather satellite Fengyun-1C, which was intentionally destroyed by a Chinese anti-satellite missile in 2007. This event dramatically increased the amount of space debris, with thousands of trackable fragments posing hazards to satellites and human spaceflight. The Fengyun 1C debris cloud has become a focal point in discussions about space sustainability and the need for international regulations to prevent the creation of new debris.

Loading next visibility...
Identifier
46986, 1999-025EZL
Orbit
SSO
Country
Flag of CNCN / PRC
Related business
Manufacturer
Unknown
Mission
Spacecraft
Bus & Motor
Unknown
Mass
Unknown
Launch date (UTC)
1999-05-10 (27 years ago)
Launch vehicle
Unknown
Launch site
Taiyaun Space Center, China (TSC)
Object type
Payload
Rocket body
Debris
Shape & HBR
Unknown shape, 0.1 m
Radar Cross Section
Small (<0.1 m²)

Expand to show TLE details & history
Last TLE update: 1 day ago

TLE from 1 day ago
0 FENGYUN 1C DEB
1 46986U 99025EZL 26256.28012063  .00001003  00000-0  26353-3 0  9997
2 46986  98.2186 277.6109 0105392  93.5954 267.7300 14.47983710673720
Epoch: 2026-09-13T06:43Z
TLE epoch observation values (Epoch: 2026-09-13T06:43:22.422Z)
Latitude
0.00002°
Longitude
-175.50957°
Altitude
738.967 km
Speed
7.483 km/s
True Right ascension
18h 30m 26s
True Declination
0° 00' 00"
Sunlit
Object was in daylight at epoch
Visualization orbit readout
Latitude
Unknown
Longitude
Unknown
Altitude
Unknown
Speed
Unknown
Apparent Right ascension
Unknown
Apparent Declination
Unknown
Sunlit
N/A
Visualization observer readout
Local Sidereal Time
00:23:31
Azimuth
Unknown
Elevation
Unknown
Doppler factor
Unknown
Orbital elements
Apogee altitude
804.246 km
Perigee altitude
654.432 km
Semi-major axis
7,107.476 km
Eccentricity
0.01054
Inclination
98.2186°
RAAN
277.6109°
Arg. of periapsis
93.5954°
True anomaly
266.52396°
Mean anomaly
267.73°
Eccentric anomaly
267.12691°
Mean motion
3.62218 °/min
Orbital period
99.39 mins
BSTAR
0.00026353
Loading maneuver chart data...
Computing Atmospheric mass density...

Documentation

Showing up to 5 results
|